Regional Weather Roundup
Issued by NWS

Home | Current Version | Previous Version | Graphics & Text | Print | Product List | Glossary On
Versions: 1 2 3 4 5 6 7 8 9 10 11 12 13 14 15 16 17 18 19 20 21 22 23 24 25 26 27 28 29 30 31 32 33 34 35 36 37 38 39 40 41 42 43 44 45 46 47 48 49 50
000
ASUS43 KLOT 251504
RWRIL

ILLINOIS REGIONAL WEATHER ROUNDUP
NATIONAL WEATHER SERVICE CHICAGO/ROMEOVILLE IL
1000 AM CDT MON SEP 25 2017

NOTE: "FAIR" INDICATES FEW OR NO CLOUDS BELOW 12,000 FEET WITH NO
SIGNIFICANT WEATHER AND/OR OBSTRUCTIONS TO VISIBILITY.

* THESE STATIONS ARE NOT UNDER NWS QUALITY CONTROL. THEY ALSO MAY NOT
  REPORT WEATHER SUCH AS PRECIPITATION OR FOG.

ILZ001-002-007-009-015-016-024-251600-
NORTHWEST ILLINOIS

CITY           SKY/WX    TMP DP  RH WIND       PRES   REMARKS
MOLINE         SUNNY     78  65  63 S5        29.98S HX  80
STERLING*      SUNNY     78  64  61 VRB5      30.00F HX  80
SAVANNA*       SUNNY     78  63  59 S5        29.99F HX  80
$$

ILZ003-004-008-010-011-017-018-251600-
NORTH CENTRAL ILLINOIS

CITY           SKY/WX    TMP DP  RH WIND       PRES   REMARKS
ROCKFORD       MOSUNNY   73  63  70 CALM      30.02S
FREEPORT*      SUNNY     79  62  56 CALM      30.02F HX  80
ROCHELLE*      SUNNY     81  63  54 CALM      30.02F HX  82
DE KALB*       SUNNY     80  63  55 S3        30.03S HX  82
PERU*          MOSUNNY   76  62  60 SW3       30.02S
$$

ILZ005-006-012>014-019>023-251600-
NORTHEAST ILLINOIS

CITY           SKY/WX    TMP DP  RH WIND       PRES   REMARKS
CHICAGO-OHARE  MOSUNNY   81  61  50 VRB5      30.01F HX  82
CHICAGO-MIDWAY MOSUNNY   82  61  48 S6        30.02S HX  83
AURORA         SUNNY     78  64  61 CALM      30.03S HX  80
LANSING*       SUNNY     79  65  60 S5        30.04S HX  81
JOLIET*        SUNNY     79  64  60 S5        30.02F HX  80
WAUKEGAN       SUNNY     80  65  59 SE5       30.01S HX  82
DUPAGE AIRPORT SUNNY     79  64  60 S6        30.02S HX  81
KANKAKEE*      MOSUNNY   79  63  57 S5        30.04F HX  80
WHEELING       SUNNY     82  63  52 SW6       30.03S HX  83
MORRIS*        SUNNY     78  63  60 SE3       30.01S HX  80
ROMEOVILLE*    SUNNY     78  62  58 SE6       30.03S
NORTHERLY ISL    N/A     78  62  57 SE2         N/A  HX  80
$$

LMZ740>746-251600-
SOUTHERN LAKE MICHIGAN

STATION/POSITION SKY/WX   TEMP    WIND        PRES    VSBY  WAVE
                          AIR SEA DIR/SP/G                  HT/PER
                          (F)     (DEG/KT/KT) (MB)    (MI)  (FT/S)
SOUTHERN BUOY              72 71  160/  8/ 10 1016.7          1
WILMETTE HARBOR            72 69  140/  8/ 10   N/A           1/ 2
HARRISON CRIB              74     150/  8/ 11   N/A
BURNHAM HARBOR             78                   N/A
CALUMET HARBOR             77     180/  4/  5 1016.2F
BURNS HARBOR               79     180/  5/ 10 1017.6S
MICHIGAN CITY              77     140/  9/ 10   N/A
MICHIGAN CITY 6N           74 72  170/  6/  6   N/A           1
ST. JOSEPH                 74 71  180/  4/  6 1017.2F         1
$$

ILZ025>027-034>036-040-047-049-050-058-095>099-251600-
WEST-CENTRAL ILLINOIS

CITY           SKY/WX    TMP DP  RH WIND       PRES   REMARKS
QUINCY         MOSUNNY   79  65  62 S9        30.00S HX  81
GALESBURG*     SUNNY     78  66  65 S6        30.00F HX  80
MACOMB*        SUNNY     79  65  61 SW5       30.02S HX  81
JACKSONVILLE*  SUNNY     81  64  56 S5        30.02S HX  82
PITTSFIELD*    SUNNY     79  66  64 S6        30.03S HX  81
$$

ILZ028>032-037-038-041>044-048-051>054-059>061-251600-
CENTRAL ILLINOIS

CITY           SKY/WX    TMP DP  RH WIND       PRES   REMARKS
PONTIAC        SUNNY     80  67  65 S5        30.03S HX  83
BLOOMINGTON    SUNNY     79  67  66 S8        30.04S HX  81
DECATUR        SUNNY     80  66  62 S6        30.03F HX  82
PEORIA         SUNNY     79  66  64 S5        30.01S HX  81
LINCOLN*       SUNNY     80  67  64 S6        30.02F HX  83
SPRINGFIELD    SUNNY     82  66  58 S3        30.02S HX  84
TAYLORVILLE    SUNNY     83  65  55 S5        30.03S HX  84
$$

ILZ033-039-045-046-055>057-062-063-251600-
EAST-CENTRAL ILLINOIS

CITY           SKY/WX    TMP DP  RH WIND       PRES   REMARKS
CHAMPAIGN      SUNNY     83  63  50 SE3       30.04F HX  84
RANTOUL*       SUNNY     82  65  57 CALM      30.04F HX  83
MATTOON        SUNNY     82  67  60 CALM      30.03F HX  84
PARIS*         MOSUNNY   79  65  62 CALM      30.05F HX  80
$$

ILZ079-100>102-251600-
SOUTHWEST ILLINOIS

CITY           SKY/WX    TMP DP  RH WIND       PRES   REMARKS
ALTON          SUNNY     79  68  69 SW8       30.03S HX  81
BELLEVILLE     SUNNY     79  68  67 CALM      30.01F HX  81
CAHOKIA*       SUNNY     81  66  60 SW6       30.02F HX  83
SPARTA*        SUNNY     79  67  66 SW3       30.04F HX  82
$$

ILZ064>066-069>071-074>076-080>082-084>086-088>090-092>094-251600-
SOUTH-CENTRAL ILLINOIS

CITY           SKY/WX    TMP DP  RH WIND       PRES   REMARKS
CARBONDALE     SUNNY     78  70  76 S3        30.04S HX  80
CAIRO*         SUNNY     77  69  77 CALM      30.04R
EFFINGHAM*     SUNNY     82  65  55 CALM      30.05F HX  84
MARION         SUNNY     79  68  69 SW5       30.05S HX  81
MT. VERNON       N/A     80  68  66 S5        30.04S HX  83
CENTRALIA*     SUNNY     83  68  60 W6        30.03S HX  86
SALEM*         SUNNY     82  65  56 CALM      30.04F HAZE    HX  83
METROPOLIS*    LGT RAIN  81  69  65 CALM      30.04S HX  84
$$

ILZ067-068-072-073-078-083-087-091-251600-
SOUTHEAST ILLINOIS

CITY           SKY/WX    TMP DP  RH WIND       PRES   REMARKS
LAWRENCEVILLE  SUNNY     82  67  60 W5        30.05S HX  84
FLORA*         SUNNY     82  65  58 CALM      30.04F HX  83
FAIRFIELD*     SUNNY     83  65  55 CALM      30.03F HX  84
HARRISBURG*    SUNNY     80  68  67 CALM      30.04F HX  82
ROBINSON*      MOSUNNY   80  66  62 CALM      30.06S HX  81
CARMI*         SUNNY     81  68  65 CALM      30.04S HX  84
$$

ABBREVIATIONS USED IN REMARKS
   TC - TEMPERATURE IN CELSIUS
  WCI - WIND CHILL INDEX
   HX - HEAT INDEX
  VSB - VISIBILITY
$$




USA.gov is the U.S. government's official web portal to all federal, state and local government web resources and services.